TimeCDT,TemperatureF,Dew PointF,Humidity,Sea Level PressureIn,VisibilityMPH,Wind Direction,Wind SpeedMPH,Gust SpeedMPH,PrecipitationIn,Events,Conditions,WindDirDegrees,DateUTC
12:15 AM,53.6,47.3,79,30.13,10.0,North,10.4,-,N/A,,Overcast,10,2012-10-06 05:15:00
12:35 AM,53.2,47.3,80,30.13,10.0,North,8.1,-,N/A,,Overcast,10,2012-10-06 05:35:00
12:55 AM,53.1,47.3,81,30.14,10.0,North,8.1,-,N/A,,Overcast,10,2012-10-06 05:55:00
1:15 AM,52.9,46.9,80,30.13,10.0,NNE,5.8,-,N/A,,Overcast,30,2012-10-06 06:15:00
1:35 AM,52.7,47.1,81,30.14,10.0,North,5.8,-,N/A,,Overcast,360,2012-10-06 06:35:00
1:55 AM,52.7,47.1,81,30.14,10.0,NNE,3.5,-,N/A,,Overcast,30,2012-10-06 06:55:00
2:15 AM,52.7,46.9,81,30.15,10.0,NNE,5.8,-,N/A,,Overcast,20,2012-10-06 07:15:00
2:35 AM,52.3,46.9,82,30.14,10.0,North,9.2,-,N/A,,Overcast,10,2012-10-06 07:35:00
2:55 AM,52.0,46.6,82,30.15,10.0,NNE,10.4,-,N/A,,Overcast,20,2012-10-06 07:55:00
3:15 AM,51.8,46.4,82,30.14,10.0,NNE,12.7,-,N/A,,Overcast,20,2012-10-06 08:15:00
3:35 AM,51.8,46.4,82,30.14,10.0,North,9.2,-,N/A,,Overcast,10,2012-10-06 08:35:00
3:55 AM,51.4,46.0,82,30.13,10.0,North,11.5,-,N/A,,Overcast,10,2012-10-06 08:55:00
4:35 AM,50.9,46.0,83,30.13,10.0,NNE,9.2,-,N/A,,Overcast,20,2012-10-06 09:35:00
4:55 AM,51.1,45.5,81,30.15,10.0,North,8.1,-,N/A,,Overcast,10,2012-10-06 09:55:00
5:15 AM,50.9,44.6,79,30.14,10.0,NNE,11.5,17.3,N/A,,Overcast,30,2012-10-06 10:15:00
5:35 AM,50.9,44.2,78,30.15,10.0,NNE,8.1,17.3,N/A,,Overcast,20,2012-10-06 10:35:00
5:55 AM,50.9,43.7,76,30.16,10.0,NNE,9.2,-,N/A,,Overcast,20,2012-10-06 10:55:00
6:15 AM,50.9,43.2,75,30.17,10.0,NNE,9.2,-,N/A,,Overcast,20,2012-10-06 11:15:00
6:35 AM,50.9,42.6,73,30.17,10.0,NE,6.9,-,N/A,,Overcast,40,2012-10-06 11:35:00
6:55 AM,50.5,42.1,73,30.18,10.0,NNE,10.4,-,N/A,,Overcast,20,2012-10-06 11:55:00
7:15 AM,50.4,41.5,72,30.18,10.0,NNE,8.1,16.1,N/A,,Overcast,20,2012-10-06 12:15:00
7:35 AM,49.1,42.8,79,30.18,10.0,NNE,6.9,-,N/A,Rain,Light Rain,30,2012-10-06 12:35:00
7:55 AM,48.2,44.4,87,30.18,10.0,NNE,6.9,-,N/A,,Light Drizzle,20,2012-10-06 12:55:00
8:15 AM,48.0,43.9,86,30.18,10.0,NE,4.6,-,N/A,,Overcast,40,2012-10-06 13:15:00
8:35 AM,48.0,43.3,84,30.19,10.0,NNE,5.8,-,N/A,,Overcast,20,2012-10-06 13:35:00
8:55 AM,48.2,43.5,84,30.20,10.0,NNE,5.8,-,N/A,,Overcast,20,2012-10-06 13:55:00
9:15 AM,48.2,43.0,82,30.20,10.0,NNE,5.8,-,N/A,,Overcast,20,2012-10-06 14:15:00
9:35 AM,48.6,42.6,80,30.21,10.0,NNE,5.8,-,N/A,,Overcast,20,2012-10-06 14:35:00
9:55 AM,48.7,41.4,76,30.20,10.0,NE,6.9,-,N/A,,Overcast,40,2012-10-06 14:55:00
10:15 AM,49.1,40.8,73,30.20,10.0,NE,8.1,-,N/A,,Overcast,40,2012-10-06 15:15:00
10:35 AM,49.5,41.0,73,30.20,10.0,NNE,8.1,-,N/A,,Overcast,30,2012-10-06 15:35:00
10:55 AM,49.5,40.6,72,30.20,10.0,NE,9.2,-,N/A,,Overcast,50,2012-10-06 15:55:00
11:15 AM,50.0,41.0,71,30.21,10.0,NNE,8.1,-,N/A,,Overcast,30,2012-10-06 16:15:00
11:35 AM,50.0,40.5,70,30.21,10.0,NE,6.9,-,N/A,,Overcast,50,2012-10-06 16:35:00
11:55 AM,50.2,40.1,68,30.20,10.0,NE,9.2,-,N/A,,Overcast,40,2012-10-06 16:55:00
12:15 PM,50.5,40.3,68,30.21,10.0,NE,6.9,-,N/A,,Overcast,50,2012-10-06 17:15:00
12:35 PM,50.2,40.8,70,30.21,10.0,NNE,9.2,-,N/A,,Overcast,30,2012-10-06 17:35:00
12:55 PM,50.0,41.0,71,30.21,10.0,NNE,5.8,-,N/A,,Overcast,30,2012-10-06 17:55:00
1:15 PM,50.0,40.8,71,30.21,10.0,NE,5.8,-,N/A,,Overcast,40,2012-10-06 18:15:00
1:35 PM,50.9,40.5,67,30.20,10.0,NE,8.1,-,N/A,,Overcast,40,2012-10-06 18:35:00
1:55 PM,52.2,41.0,66,30.18,10.0,NE,9.2,-,N/A,,Overcast,40,2012-10-06 18:55:00
2:15 PM,52.3,40.3,64,30.18,10.0,NE,5.8,-,N/A,,Overcast,40,2012-10-06 19:15:00
2:35 PM,51.8,39.4,63,30.17,10.0,NNE,9.2,-,N/A,,Overcast,30,2012-10-06 19:35:00
2:55 PM,50.4,41.4,71,30.17,10.0,NNE,6.9,-,N/A,,Overcast,30,2012-10-06 19:55:00
3:15 PM,50.4,40.8,70,30.17,10.0,North,10.4,-,N/A,,Overcast,10,2012-10-06 20:15:00
3:35 PM,49.1,41.2,74,30.17,10.0,NNE,9.2,16.1,N/A,,Overcast,20,2012-10-06 20:35:00
3:55 PM,48.7,40.8,74,30.16,10.0,NE,11.5,16.1,N/A,,Overcast,40,2012-10-06 20:55:00
4:15 PM,48.9,39.9,71,30.19,10.0,NNE,10.4,-,N/A,,Overcast,20,2012-10-06 21:15:00
4:35 PM,48.2,41.4,77,30.18,10.0,NNE,9.2,-,N/A,,Overcast,20,2012-10-06 21:35:00
4:55 PM,47.7,39.6,73,30.19,10.0,NE,12.7,19.6,N/A,,Overcast,50,2012-10-06 21:55:00
5:15 PM,46.9,39.6,76,30.19,10.0,NE,15.0,18.4,N/A,,Overcast,40,2012-10-06 22:15:00
5:35 PM,46.6,41.2,81,30.20,10.0,North,10.4,17.3,N/A,,Overcast,10,2012-10-06 22:35:00
5:55 PM,45.7,38.3,75,30.21,10.0,NNE,10.4,16.1,N/A,,Overcast,30,2012-10-06 22:55:00
6:15 PM,45.7,37.9,74,30.19,10.0,NE,9.2,-,N/A,,Overcast,50,2012-10-06 23:15:00
6:35 PM,45.5,38.3,76,30.18,10.0,ENE,6.9,-,N/A,,Overcast,60,2012-10-06 23:35:00
6:55 PM,45.7,37.9,74,30.22,10.0,NNE,10.4,-,N/A,,Overcast,20,2012-10-06 23:55:00
7:15 PM,45.1,37.6,75,30.23,10.0,NE,4.6,-,N/A,,Overcast,40,2012-10-07 00:15:00
7:35 PM,45.5,38.3,76,30.23,10.0,NNE,3.5,-,N/A,,Overcast,30,2012-10-07 00:35:00
7:55 PM,45.3,38.7,78,30.23,10.0,NNE,5.8,-,N/A,,Overcast,30,2012-10-07 00:55:00
8:15 PM,44.8,39.2,81,30.24,10.0,NNE,3.5,-,N/A,,Overcast,20,2012-10-07 01:15:00
8:35 PM,45.1,39.7,81,30.25,10.0,NNE,3.5,-,N/A,,Overcast,30,2012-10-07 01:35:00
8:55 PM,45.1,40.1,82,30.25,10.0,NNE,3.5,-,N/A,,Drizzle,20,2012-10-07 01:55:00
9:15 PM,44.6,41.5,89,30.26,10.0,NNE,3.5,-,N/A,,Drizzle,20,2012-10-07 02:15:00
9:35 PM,44.8,42.1,90,30.26,10.0,Calm,Calm,-,N/A,,Light Drizzle,0,2012-10-07 02:35:00
9:55 PM,45.1,42.1,89,30.26,10.0,Calm,Calm,-,N/A,,Overcast,0,2012-10-07 02:55:00
10:15 PM,45.5,42.1,88,30.27,10.0,Calm,Calm,-,N/A,,Overcast,0,2012-10-07 03:15:00
10:35 PM,45.5,42.3,88,30.26,10.0,Calm,Calm,-,N/A,,Overcast,0,2012-10-07 03:35:00
10:55 PM,45.9,41.9,86,30.26,10.0,Calm,Calm,-,N/A,,Overcast,0,2012-10-07 03:55:00
11:15 PM,46.0,42.4,87,30.27,10.0,Calm,Calm,-,N/A,,Overcast,0,2012-10-07 04:15:00
11:35 PM,46.0,43.0,89,30.27,10.0,Calm,Calm,-,N/A,,Overcast,0,2012-10-07 04:35:00
11:55 PM,46.4,42.8,87,30.27,10.0,NNW,3.5,-,N/A,,Overcast,330,2012-10-07 04:55:00